This demonstration page uses our WeatherBlox Daily Observations layout. Learn more.

Left ArrowRight Arrow

Hourly Observations for January 11, 2017

Temp ( °F °C ) Dew Point ( °F °C ) Humidity (%) Winds ( mph kmh ) Pressure ( in mb ) Visibility ( mi km ) Precip ( " mm )
12:15 am 00:15 Clear 36 2.3 24 -4.5 61 61 S 13 20 29.77 1008 10 16 0.00 0.00
12:35 am 00:35 Clear 37 2.6 24 -4.4 60 60 S 13 20 29.74 1007 10 16 0.00 0.00
12:55 am 00:55 Clear 37 3 24 -4.2 60 60 S 13 20 29.71 1006 10 16 0.00 0.00
1:15 am 01:15 Clear 38 3.3 25 -4 59 59 SSW 14 22 29.71 1006 10 16 0.00 0.00
1:35 am 01:35 Clear 38 3.2 24 -4.2 59 59 SSW 13 20 29.68 1005 10 16 0.00 0.00
1:55 am 01:55 Clear 38 3.1 25 -4.1 60 60 S 12 19 29.68 1005 10 16 0.00 0.00
2:15 am 02:15 Clear 37 2.7 25 -4.1 61 61 S 9 15 29.68 1005 10 16 0.00 0.00
2:35 am 02:35 Clear 37 2.6 25 -4.1 62 62 S 12 19 29.65 1004 10 16 0.00 0.00
2:55 am 02:55 Clear 37 2.5 25 -4 63 63 S 10 17 29.65 1004 10 16 0.00 0.00
3:15 am 03:15 Clear 37 2.8 25 -3.8 62 62 S 12 19 29.65 1004 10 16 0.00 0.00
3:35 am 03:35 Clear 37 3 25 -3.8 61 61 S 12 19 29.62 1003 10 16 0.00 0.00
3:55 am 03:55 Clear 37 2.7 25 -3.7 63 63 S 10 17 29.62 1003 10 16 0.00 0.00
4:15 am 04:15 Clear 37 2.7 26 -3.5 64 64 S 8 13 29.62 1003 10 16 0.00 0.00
4:35 am 04:35 Clear 37 2.7 26 -3.5 64 64 SSE 3 6 29.59 1002 10 16 0.00 0.00
4:55 am 04:55 Partly Cloudy 35 1.7 26 -3.3 70 70 S 7 11 29.59 1002 10 16 0.00 0.00
5:15 am 05:15 Mostly Cloudy 36 2.2 26 -3.3 67 67 SSE 6 9 29.59 1002 10 16 0.00 0.00
5:35 am 05:35 Partly Cloudy 35 1.8 26 -3.1 70 70 S 3 6 29.56 1001 10 16 0.00 0.00
5:55 am 05:55 Partly Cloudy 34 1.2 27 -2.8 75 75 Calm 29.59 1002 10 16 0.00 0.00
6:15 am 06:15 Partly Cloudy 33 0.8 27 -3 76 76 Calm 29.59 1002 10 16 0.00 0.00
6:35 am 06:35 Clear 33 0.8 27 -2.8 77 77 SE 3 6 29.59 1002 10 16 0.00 0.00
6:55 am 06:55 Clear 34 0.9 26 -3.2 74 74 SE 3 6 29.62 1003 10 16 0.00 0.00
7:15 am 07:15 Clear 33 0.8 27 -2.8 77 77 N 15 24 29.65 1004 10 16 0.00 0.00
7:35 am 07:35 Partly Cloudy 35 1.5 27 -3 72 72 N 16 26 29.65 1004 10 16 0.00 0.00
7:55 am 07:55 Partly Cloudy 21 -5.9 16 -8.9 80 80 N 29 46 29.74 1007 10 16 0.00 0.00
8:15 am 08:15 Partly Cloudy 17 -8.2 12 -10.9 81 81 N 26 43 29.80 1009 10 16 0.00 0.00
8:35 am 08:35 Partly Cloudy 15 -9.5 10 -12.2 81 81 N 22 35 29.80 1009 10 16 0.00 0.00
8:55 am 08:55 Mostly Cloudy 14 -10 9 -12.8 80 80 N 30 48 29.85 1011 10 16 0.00 0.00
9:15 am 09:15 Partly Cloudy 14 -10.1 8 -13.3 78 78 N 25 41 29.88 1012 10 16 0.00 0.00
9:35 am 09:35 Partly Cloudy 15 -9.7 8 -13.3 75 75 N 25 41 29.88 1012 10 16 0.00 0.00
9:55 am 09:55 Partly Cloudy 16 -9 8 -13.1 72 72 N 26 43 29.85 1011 10 16 0.00 0.00
10:15 am 10:15 Partly Cloudy 16 -9 8 -13.4 71 71 NNE 33 54 29.91 1013 10 16 0.00 0.00
10:35 am 10:35 Partly Cloudy 17 -8.2 8 -13.1 68 68 N 21 33 29.88 1012 10 16 0.00 0.00
10:55 am 10:55 Partly Cloudy 17 -8.2 8 -13.5 66 66 N 26 43 29.91 1013 10 16 0.00 0.00
11:15 am 11:15 Sunny 18 -7.8 8 -13.5 64 64 NNE 24 39 29.91 1013 10 16 0.00 0.00
11:35 am 11:35 Sunny 18 -7.6 8 -13.4 64 64 N 24 39 29.94 1014 10 16 0.00 0.00
11:55 am 11:55 Partly Cloudy 19 -7.5 8 -13.5 63 63 N 18 30 29.94 1014 10 16 0.00 0.00
12:15 pm 12:15 Partly Cloudy 19 -7.1 8 -13.1 63 63 NNE 21 33 29.91 1013 10 16 0.00 0.00
12:35 pm 12:35 Sunny 19 -7.3 8 -13.6 61 61 N 23 37 29.91 1013 10 16 0.00 0.00
12:55 pm 12:55 Sunny 18 -7.7 7 -13.8 62 62 NNE 18 30 29.94 1014 10 16 0.00 0.00
1:15 pm 13:15 Sunny 18 -7.8 7 -13.8 62 62 NNE 17 28 29.91 1013 10 16 0.00 0.00
1:35 pm 13:35 Sunny 20 -6.9 8 -13.5 60 60 NNE 20 31 29.91 1013 10 16 0.00 0.00
1:55 pm 13:55 Sunny 19 -7.5 7 -13.9 61 61 N 17 28 29.91 1013 10 16 0.00 0.00
2:15 pm 14:15 Sunny 20 -6.8 7 -13.9 57 57 N 14 22 29.91 1013 10 16 0.00 0.00
2:35 pm 14:35 Sunny 20 -6.9 7 -14.1 57 57 NNE 18 30 29.91 1013 10 16 0.00 0.00
2:55 pm 14:55 Sunny 19 -7 7 -14.1 57 57 N 17 28 29.94 1014 10 16 0.00 0.00
3:15 pm 15:15 Sunny 20 -6.5 7 -13.9 56 56 N 18 30 29.94 1014 10 16 0.00 0.00
3:35 pm 15:35 Sunny 20 -6.6 6 -14.2 55 55 N 18 30 29.94 1014 10 16 0.00 0.00
3:55 pm 15:55 Sunny 19 -7 6 -14.4 56 56 NNE 17 28 29.94 1014 10 16 0.00 0.00
4:15 pm 16:15 Sunny 19 -7 6 -14.3 56 56 NNE 17 28 29.94 1014 10 16 0.00 0.00
4:35 pm 16:35 Sunny 19 -7.5 6 -14.5 58 58 NNE 14 22 29.94 1014 10 16 0.00 0.00
4:55 pm 16:55 Sunny 18 -8 6 -14.7 59 59 N 13 20 29.97 1015 10 16 0.00 0.00
5:15 pm 17:15 Sunny 17 -8.3 6 -14.6 61 61 N 10 17 30.00 1016 10 16 0.00 0.00
5:35 pm 17:35 Partly Cloudy 16 -8.7 5 -14.9 61 61 NNE 16 26 29.97 1015 10 16 0.00 0.00
5:55 pm 17:55 Partly Cloudy 16 -8.7 6 -14.5 63 63 NNE 13 20 29.97 1015 10 16 0.00 0.00
6:15 pm 18:15 Partly Cloudy 17 -8.5 6 -14.6 62 62 NE 16 26 29.97 1015 10 16 0.00 0.00
6:35 pm 18:35 Mostly Cloudy 17 -8.6 5 -15 60 60 NNE 15 24 30.00 1016 10 16 0.00 0.00
6:55 pm 18:55 Cloudy 17 -8.5 6 -14.7 61 61 NNE 18 30 30.00 1016 10 16 0.00 0.00
7:15 pm 19:15 Cloudy 16 -8.7 5 -15.2 60 60 NNE 21 33 29.97 1015 10 16 0.00 0.00
7:35 pm 19:35 Cloudy 16 -8.9 4 -15.6 59 59 NE 12 19 30.03 1017 10 16 0.00 0.00
7:55 pm 19:55 Cloudy 16 -9 4 -15.5 60 60 NNE 12 19 30.06 1018 10 16 0.00 0.00
8:15 pm 20:15 Cloudy 15 -9.2 4 -15.5 61 61 NNE 12 19 30.06 1018 10 16 0.00 0.00
8:35 pm 20:35 Mostly Cloudy 15 -9.5 4 -15.5 62 62 NNE 12 19 30.06 1018 10 16 0.00 0.00
8:55 pm 20:55 Partly Cloudy 14 -9.9 4 -15.5 64 64 N 9 15 30.06 1018 10 16 0.00 0.00
9:15 pm 21:15 Mostly Cloudy 14 -10 4 -15.5 64 64 N 9 15 30.09 1019 10 16 0.00 0.00
9:35 pm 21:35 Mostly Cloudy 14 -10.2 4 -15.5 65 65 N 10 17 30.12 1020 10 16 0.00 0.00
9:55 pm 21:55 Partly Cloudy 13 -10.6 3 -16 65 65 N 9 15 30.12 1020 10 16 0.00 0.00
10:15 pm 22:15 Partly Cloudy 13 -10.6 4 -15.6 67 67 N 12 19 30.12 1020 10 16 0.00 0.00
10:35 pm 22:35 Mostly Cloudy 13 -10.5 4 -15.5 67 67 N 12 19 30.12 1020 10 16 0.00 0.00
10:55 pm 22:55 Cloudy 13 -10.7 5 -15.2 70 70 N 9 15 30.12 1020 10 16 0.00 0.00
11:15 pm 23:15 Mostly Cloudy 12 -10.9 5 -14.9 73 73 N 10 17 30.12 1020 10 16 0.00 0.00
11:35 pm 23:35 Mostly Cloudy 12 -11.2 6 -14.6 76 76 N 12 19 30.12 1020 10 16 0.00 0.00
11:55 pm 23:55 Partly Cloudy 11 -11.5 6 -14.5 79 79 N 9 15 30.12 1020 10 16 0.00 0.00

Powered by AerisWeather